Flag for Sweden Weather past 2 weeks in Växjö, Sweden

Now
54 °F

Partly sunny.


Feels Like: 51 °F
Forecast: 42 / 56 °F
Wind: 9 mph from Southeast

Location: Vaxjo Airport

Current Time: Apr 25, 2015 at 1:16:48 PM

Latest Report: Apr 25, 2015 at 12:50 PM


Visibility: N/A

Pressure: 29.65 "Hg

Humidity: 77%

Dew point: 46 °F

Location of VäxjöLocation

Historic Weather in Växjö — Graph

°F

Växjö temperature yesterday

Maximum temperature yesterday: 57 °F (at 2:20 PM)
Minimum temperature yesterday: 43 °F (at 4:50 AM)
Average temperature yesterday: 49 °F

Past Weeks' High & Low Weather Summary

 TemperatureHumidityPressure
High66 °F (Apr 22, 4:20 PM)100% (Apr 11, 2:20 AM)30.27 "Hg (Apr 11, 2:20 AM)
Low28 °F (Apr 22, 5:20 AM)23% (Apr 20, 6:20 PM)29.47 "Hg (Apr 15, 7:20 PM)
Average46 °F70%29.95 "Hg
* Reported Apr 10 12:20 PM — Apr 25 12:20 PM, Växjö, Weather by CustomWeather, © 2015

Note: Actual official high and low records may vary slightly from our data, if they occured in-between our weather recording intervals... More about our weather records

Advertising

Växjö weather history for previous 24 hours

 ConditionsComfort  
Time TempWeatherWind HumidityBarometerVisibility
12:20 PM
Sat, Apr 25
52 °FPartly sunny.8 mph82%29.65 "HgN/A
11:50 AM54 °FPartly sunny.8 mph72%29.65 "HgN/A
11:20 AM52 °FDrizzle. Partly sunny.7 mph77%29.65 "HgN/A
10:50 AM52 °FScattered clouds.10 mph77%29.68 "HgN/A
10:20 AM52 °FPassing clouds.13 mph77%29.68 "HgN/A
9:50 AM52 °FCool.8 mph77%29.68 "HgN/A
9:20 AM48 °FPassing clouds.8 mph87%29.68 "HgN/A
8:50 AM45 °FFog.8 mph93%29.68 "Hg4 mi
8:20 AM43 °FFog.7 mph100%29.68 "Hg3 mi
7:50 AM43 °FFog.8 mph93%29.68 "Hg2 mi
7:20 AM41 °FFog.6 mph100%29.68 "Hg2 mi
6:50 AM41 °FFog.6 mph100%29.68 "Hg2 mi
6:20 AM41 °FFog.5 mph100%29.71 "Hg2 mi
5:20 AM41 °FFog.5 mph93%29.71 "Hg3 mi
4:50 AM41 °FFog.3 mph93%29.71 "Hg5 mi
4:20 AM41 °FQuite cool.6 mph93%29.71 "HgN/A
3:50 AM43 °FQuite cool.7 mph93%29.71 "HgN/A
3:20 AM43 °FQuite cool.7 mph87%29.71 "HgN/A
2:50 AM43 °FQuite cool.6 mph93%29.71 "HgN/A
2:20 AM41 °FQuite cool.5 mph87%29.71 "HgN/A
1:50 AM43 °FQuite cool.5 mph87%29.74 "HgN/A
1:20 AM43 °FQuite cool.5 mph87%29.74 "HgN/A
12:50 AM43 °FPassing clouds.5 mph87%29.74 "HgN/A
12:20 AM45 °FMostly cloudy.5 mph87%29.74 "HgN/A
11:20 PM
Fri, Apr 24
45 °FMostly cloudy.5 mph87%29.74 "HgN/A
10:50 PM45 °FPartly cloudy.3 mph87%29.74 "HgN/A
10:20 PM45 °FPartly cloudy.6 mph81%29.77 "HgN/A
9:50 PM45 °FPassing clouds.5 mph81%29.77 "HgN/A
9:20 PM45 °FMore clouds than sun.3 mph76%29.77 "HgN/A
8:50 PM45 °FPartly sunny.6 mph76%29.77 "HgN/A
8:20 PM48 °FMostly cloudy.6 mph66%29.74 "HgN/A
7:50 PM48 °FPassing clouds.8 mph66%29.77 "HgN/A
7:20 PM48 °FSunny.9 mph62%29.77 "Hg10 mi
6:50 PM50 °FSunny.14 mph47%29.77 "Hg10 mi
6:20 PM50 °FPassing clouds.12 mph50%29.74 "HgN/A
5:50 PM52 °FSunny.14 mph44%29.74 "Hg10 mi
5:20 PM54 °FSunny.14 mph38%29.74 "Hg10 mi
4:50 PM55 °FSunny.15 mph38%29.74 "Hg10 mi
4:20 PM55 °FPassing clouds.16 mph38%29.74 "HgN/A
3:50 PM55 °FPassing clouds.16 mph33%29.74 "HgN/A
3:20 PM55 °FSunny.15 mph36%29.74 "Hg10 mi
2:50 PM57 °FPassing clouds.15 mph33%29.74 "HgN/A
2:20 PM57 °FPassing clouds.15 mph33%29.74 "HgN/A
1:50 PM55 °FPassing clouds.15 mph36%29.74 "HgN/A
1:20 PM54 °FPassing clouds.14 mph38%29.74 "HgN/A
Weather by CustomWeather, © 2015

See weather overviewHow to use our weather pages